{"data":{"norad_id":69749,"intl_designator":"2026-150L","name":"STARLINK-37987","alt_names":[],"object_type":"PAYLOAD","status":"ACTIVE","operator":null,"country":"US","launch_date":"2026-07-02","launch_site_code":"AFWTR","launch_vehicle":null,"mission":null,"orbit_class":"UNKNOWN","rcs_meters":null,"size_class":null,"mass_kg":null,"dimensions":null,"purposes":["comms"],"wikipedia_slug":null,"has_3d_model":false,"image_url":null,"decayed_at":null,"tle_current":{"epoch":"2026-09-19T19:51:35.382240Z","epoch_age_seconds":75858,"freshness":"FRESH","line1":"1 69749U 26150L   26262.82749285  .00023496  00000+0  72717-3 0  9992","line2":"2 69749  97.2842 101.7760 0002319  92.7508 267.4001 15.33473522 13635","mean_motion":15.33473522,"eccentricity":0.0002319,"inclination_deg":97.2842,"raan_deg":101.776,"arg_perigee_deg":92.7508,"mean_anomaly_deg":267.4001,"bstar":0.00072717,"rev_number":1363,"period_min":93.904458038631,"perigee_km":463.87128463499,"apogee_km":467.0453441418,"semimajor_km":6843.5953143884,"source":"CELESTRAK","updated_at":"2026-09-20T09:00:44.287976Z"}}}